📊 Raw Sensor Data
Showing records 52526 to 52550 of 85,291 total
| ID | Distance (ft) | Battery V | Battery A | Int Temp (°F) | Int Humid (%) | Ext Temp (°F) | Solar V | RSSI | SNR | Time Stamp |
|---|---|---|---|---|---|---|---|---|---|---|
| 32778 | 13.2 | 3.74 | -5 | 50 | 38 | 50 | 0.00 | -83 | 7 | 02/18/2025 10:15 PM |
| 32777 | 13.2 | 3.79 | -5 | 50 | 38 | 51 | 0.00 | -82 | 8 | 02/18/2025 10:00 PM |
| 32776 | 13.2 | 3.79 | -5 | 50 | 39 | 51 | 0.00 | -80 | 7 | 02/18/2025 09:45 PM |
| 32775 | 13.2 | 3.75 | -5 | 51 | 39 | 52 | 0.00 | -80 | 8 | 02/18/2025 09:30 PM |
| 32774 | 13.2 | 3.75 | -5 | 51 | 39 | 51 | 0.00 | -80 | 7 | 02/18/2025 09:15 PM |
| 32773 | 13.2 | 3.75 | -5 | 52 | 39 | 52 | 0.00 | -80 | 7 | 02/18/2025 09:00 PM |
| 32772 | 13.2 | 3.75 | -5 | 52 | 39 | 52 | 0.00 | -79 | 8 | 02/18/2025 08:45 PM |
| 32771 | 13.2 | 3.79 | -5 | 53 | 38 | 53 | 0.00 | -79 | 8 | 02/18/2025 08:30 PM |
| 32770 | 13.2 | 3.75 | -5 | 53 | 39 | 55 | 0.00 | -79 | 8 | 02/18/2025 08:15 PM |
| 32769 | 13.2 | 3.74 | -5 | 53 | 39 | 54 | 0.00 | -80 | 8 | 02/18/2025 08:00 PM |
| 32768 | 13.2 | 3.79 | -5 | 54 | 39 | 55 | 0.10 | -80 | 8 | 02/18/2025 07:45 PM |
| 32767 | 13.2 | 3.75 | -5 | 54 | 39 | 56 | 0.00 | -80 | 6 | 02/18/2025 07:30 PM |
| 32766 | 13.1 | 3.76 | -5 | 54 | 39 | 56 | 0.00 | -80 | 7 | 02/18/2025 07:15 PM |
| 32765 | 13.2 | 3.80 | -5 | 54 | 39 | 55 | 0.00 | -80 | 7 | 02/18/2025 07:00 PM |
| 32764 | 13.1 | 3.80 | -5 | 55 | 39 | 56 | 0.00 | -79 | 7 | 02/18/2025 06:45 PM |
| 32763 | 13.1 | 3.76 | -5 | 55 | 39 | 57 | 0.00 | -79 | 7 | 02/18/2025 06:30 PM |
| 32762 | 13.2 | 3.76 | -5 | 55 | 40 | 56 | 0.00 | -79 | 8 | 02/18/2025 06:15 PM |
| 32761 | 13.1 | 3.76 | -5 | 56 | 40 | 56 | 0.40 | -79 | 7 | 02/18/2025 06:00 PM |
| 32760 | 13.1 | 3.75 | -6 | 57 | 40 | 56 | 3.20 | -78 | 7 | 02/18/2025 05:45 PM |
| 32759 | 13.1 | 3.65 | 0 | 58 | 40 | 58 | 4.50 | -79 | 8 | 02/18/2025 05:30 PM |
| 32758 | 13.1 | 3.84 | 10 | 60 | 39 | 59 | 4.50 | -78 | 8 | 02/18/2025 05:15 PM |
| 32757 | 13.1 | 3.80 | 24 | 61 | 39 | 60 | 4.50 | -78 | 7 | 02/18/2025 05:00 PM |
| 32756 | 13.1 | 3.73 | 0 | 61 | 39 | 60 | 5.10 | -78 | 7 | 02/18/2025 04:45 PM |
| 32755 | 13.1 | 3.72 | 0 | 62 | 40 | 60 | 5.10 | -77 | 8 | 02/18/2025 04:30 PM |
| 32754 | 13.1 | 3.91 | 0 | 62 | 40 | 60 | 5.10 | -78 | 7 | 02/18/2025 04:15 PM |